Regional Weather Roundup
Issued by NWS

Home | Current Version | Previous Version | Text Only | Print | Product List | Glossary Off
Versions: 1 2 3 4 5 6 7 8 9 10 11 12 13 14 15 16 17 18 19 20 21 22 23 24 25 26 27 28 29 30 31 32 33 34 35 36 37 38 39 40 41 42 43 44 45 46 47 48 49 50

644
ASUS44 KJAN 251010
RWRMS

MISSISSIPPI HOURLY WEATHER ROUNDUP
NATIONAL WEATHER SERVICE JACKSON MS
400 AM CST SUN JAN 25 2015

NOTE: "FAIR: INDICATES FEW OR NO CLOUDS BELOW 12,000 FEET WITH NO
SIGNIFICANT WEATHER AND/OR OBSTRUCTIONS TO VISIBILITY.

MSZ001>002-007>008-010>013-018>021-025>028-034>036-251100-
NORTHWEST MISSISSIPPI

CITY           SKY/WX    TMP DP  RH WIND       PRES   REMARKS
CLARKSDALE     FAIR      37  34  87 S5        29.88F WCI  34
CLEVELAND      FAIR      38  36  94 S7        29.89F WCI  32
GREENWOOD      CLEAR     39  34  82 SW7       29.92F WCI  34
GREENVILLE     CLEAR     41  34  76 SW12      29.91F
GRENADA        FAIR      30  30 100 CALM      29.91F
OLIVE BRANCH   CLEAR     36  36 100 S10       29.84F WCI  28
OXFORD         FAIR      36  32  87 S5        29.88F WCI  32
TUNICA         SUNNY     36  34  93 S8        29.86F WCI  29
$$

MSZ003>006-009-014>017-022>024-029>033-037>039-251100-
NORTHEAST MISSISSIPPI

CITY           SKY/WX    TMP DP  RH WIND       PRES   REMARKS
COLUMBUS AFB   CLEAR     32  29  90 SE5       29.93F WCI  27
CORINTH        FAIR      32  30  93 SE6       29.84F WCI  26
GOLDN TRIANGLE CLEAR     34  28  80 S5        29.92F WCI  30
STARKVILLE     FAIR      32  32 100 CALM      29.93F
TUPELO         CLEAR     36  31  82 MISG      29.89F
$$

MSZ040-058-251100-
CENTRAL MISSISSIPPI

CITY           SKY/WX    TMP DP  RH WIND       PRES   REMARKS
JACKSON INTL   CLEAR     38  35  89 S6        29.97F WCI  33
JACKSON HAWKNS CLEAR     40  35  83 SW3       29.98F
MERIDIAN KEY   CLEAR     32  30  92 S7        29.99F WCI  26
MERIDIAN NAS   CLEAR     40  33  76 SW6       29.98F
RAYMOND        FAIR      39  36  87 SW5       29.98S
VICKSBURG      CLEAR     42  36  79 SW5       29.98F
$$

MSZ059>079-251100-
SOUTH MISSISSIPPI

CITY           SKY/WX    TMP DP  RH WIND       PRES   REMARKS
BROOKHAVEN       N/A     37  37 100 CALM      30.00F
HATTIESBURG    CLEAR     37  33  85 CALM      30.03F
MCCOMB         CLEAR     33  31  92 S6        30.03R WCI  28
NATCHEZ        CLEAR     43  37  81 SW5       30.00F
PINE BELT      CLEAR     39  34  81 SW3       30.02F
$$

MSZ080>082-251100-
COASTAL MISSISSIPPI

CITY           SKY/WX    TMP DP  RH WIND       PRES   REMARKS
BILOXI         PTCLDY    45  41  85 W3        30.05F
PASCAGOULA     FOG       36  35  96 CALM      30.06S VSB 3/4
GULFPORT       PTCLDY    39  37  92 CALM      30.05F
$$



USA.gov is the U.S. government's official web portal to all federal, state and local government web resources and services.